Wetbulb
55.26 54.66 54.32 54.30 54.37 53.93 54.17 53.94 53.57 53.41 53.62 53.68 54.16 54.24 53.93 53.75 53.83 54.23 54.63 55.56 56.35 59.50 57.13 56.47 54.97 55.59 51.76 44.84 44.98 53.99 57.00 56.04 55.27 52.23 47.87 44.76 42.25 41.29 37.05 38.89 39.88 37.00 38.98 41.13 42.07 42.07 42.07
55.09 55.28 54.83 54.57 53.95 53.50 53.10 53.31 52.91 52.42 52.65 53.05 53.31 53.23 53.07 52.58 52.68 52.81 53.22 54.94 55.47 57.06 56.61 55.77 55.02 55.56 48.16 39.08 52.33 53.25 51.63 51.03 50.48 49.85 47.13 45.93 43.19 44.21 39.45 38.00 36.69 39.62 39.25 39.59 40.99 41.06 42.21
54.83 54.71 54.64 54.42 54.05 53.93 53.54 53.31 53.03 52.61 52.42 52.50 52.42 52.14 52.23 52.22 51.74 52.15 52.86 53.81 54.57 56.98 57.17 55.27 55.02 52.69 46.20 43.81 52.44 52.39 51.02 49.54 50.44 49.08 45.64 47.49 46.45 42.77 41.93 37.57 41.34 39.57 35.16 37.75 38.74 40.18 39.53
54.90 54.71 54.70 54.53 54.19 53.24 53.56 52.94 52.71 52.41 52.17 52.08 51.68 51.54 51.53 51.08 50.99 51.54 52.87 56.38 55.34 57.15 54.90 54.79 54.73 50.68 42.09 52.74 53.27 50.76 50.87 48.93 50.60 50.34 48.31 48.90 48.48 43.98 40.84 41.83 38.99 35.42 35.58 29.69 37.18 39.59 41.02
54.85 54.86 54.36 53.98 54.15 53.58 53.05 52.97 52.40 51.90 51.63 51.49 51.43 51.51 51.60 50.83 50.32 51.01 51.77 55.96 56.14 54.64 53.97 53.95 49.74 47.11 41.58 52.51 47.74 51.03 51.01 47.29 48.26 48.60 48.96 48.64 46.67 41.43 40.72 35.12 32.85 34.41 27.19 30.22 33.90 41.03 40.39
55.15 54.67 54.12 53.82 53.73 53.67 53.28 52.60 51.97 51.54 51.24 50.75 50.99 51.07 51.26 50.98 50.01 50.51 51.07 54.01 53.72 52.75 51.91 51.59 49.40 43.01 45.24 43.59 48.07 49.71 50.89 48.80 45.34 44.75 43.06 42.43 40.44 35.58 36.46 33.65 24.93 29.30 30.46 32.58 32.80 39.02 38.82
55.59 55.12 54.56 54.13 53.47 53.07 52.49 51.63 51.47 51.24 50.92 50.60 50.57 50.64 50.90 50.88 50.07 50.11 49.34 47.53 43.94 42.88 47.03 42.86 42.65 43.00 44.97 48.16 50.31 47.06 48.54 46.44 45.28 41.53 34.60 39.10 33.44 30.02 32.70 35.47 34.51 33.68 32.91 31.82 36.20 41.18 38.40
56.33 55.90 55.40 54.63 53.82 52.85 51.89 51.05 50.73 50.50 50.52 50.38 50.20 50.25 50.47 50.63 50.02 49.92 48.97 41.54 42.75 44.61 38.95 45.52 46.39 45.14 47.59 48.02 42.24 44.91 48.70 41.53 40.06 34.34 38.26 36.17 32.85 36.31 38.78 39.18 37.27 35.79 33.55 31.70 37.28 40.48 39.17
56.40 56.31 57.06 56.55 53.11 50.83 50.29 50.30 50.05 50.16 50.13 49.92 49.85 49.95 50.09 49.96 49.83 48.61 45.04 44.35 49.62 47.98 37.98 42.41 45.10 43.77 44.51 45.78 41.56 42.25 44.96 42.97 38.92 36.17 36.37 33.60 36.57 40.85 38.75 36.87 35.47 35.63 32.94 33.49 34.59 39.07 40.36
56.71 56.28 56.46 52.04 49.01 48.82 49.51 49.63 49.75 49.73 49.49 49.49 49.56 49.88 49.63 49.39 45.21 43.74 42.80 47.59 50.36 48.89 33.71 35.28 39.56 42.60 45.12 44.54 39.90 47.30 47.02 43.61 39.21 34.88 36.35 35.48 39.79 38.73 37.99 35.67 36.94 32.87 40.03 38.55 36.12 35.83 31.26
56.45 52.98 50.98 49.75 48.35 49.47 48.97 49.55 49.64 49.50 49.36 49.31 49.24 49.40 49.14 48.43 43.80 41.10 43.93 48.40 49.83 45.04 23.64 37.28 38.65 47.76 45.29 41.28 42.57 42.86 48.56 43.94 37.40 37.66 38.68 35.98 38.21 37.73 36.12 37.28 40.36 36.45 41.51 38.37 37.70 35.92 32.83
53.01 51.09 49.73 48.05 48.19 48.20 49.35 49.38 49.33 49.39 49.35 49.11 49.19 49.18 48.24 44.80 45.09 45.48 49.07 48.13 44.86 31.02 23.58 34.69 39.35 38.79 38.31 40.91 42.19 43.01 42.86 44.53 43.83 39.17 39.21 38.14 42.98 39.53 38.28 39.81 39.97 41.62 39.25 38.55 37.87 35.69 29.45
51.21 50.44 48.44 48.08 48.60 49.30 48.98 49.09 49.43 49.48 49.36 49.22 49.21 49.07 47.79 46.65 40.38 48.23 47.38 42.88 29.99 24.67 36.50 32.53 34.67 38.35 37.47 36.79 38.90 40.12 38.67 37.39 35.02 31.24 32.16 35.73 35.65 37.43 39.92 37.28 40.61 39.74 36.70 29.17 27.71 27.65 27.50
50.90 49.76 48.85 49.36 49.38 49.35 49.48 49.56 49.75 49.73 49.56 49.33 48.98 48.52 47.16 46.89 48.22 47.83 43.88 34.24 24.83 33.31 32.97 38.82 37.48 37.53 35.32 38.43 38.42 38.87 38.03 35.55 37.48 35.67 32.73 32.31 29.99 36.58 41.40 39.82 37.59 36.76 35.25 29.86 23.51 26.83 28.42
51.29 50.11 48.74 48.82 49.22 49.61 49.86 49.90 49.89 49.85 49.52 49.49 48.81 45.46 44.12 45.91 48.16 47.55 37.60 27.85 28.26 33.32 36.90 35.94 37.00 33.95 34.12 37.84 37.68 37.75 36.30 34.74 38.49 37.15 33.47 33.87 32.65 40.70 41.54 42.80 41.48 37.63 33.65 37.89 31.34 34.53 29.48
50.92 49.08 48.39 48.89 49.35 49.72 49.86 50.00 50.03 49.90 50.36 49.74 45.04 40.94 40.71 46.78 48.03 44.01 34.22 31.59 34.55 39.59 39.71 38.79 32.40 35.78 32.27 34.76 35.26 35.61 36.32 40.16 38.79 40.87 41.17 37.76 33.15 39.00 41.28 43.58 43.09 39.54 40.98 32.06 32.01 26.46 24.58
50.16 48.50 48.59 48.98 49.32 49.43 49.73 50.06 50.16 50.28 50.72 50.06 43.83 37.02 43.11 47.84 46.83 39.41 31.33 33.74 37.17 40.77 41.02 36.64 35.38 35.24 36.43 34.85 36.78 36.16 36.39 39.49 41.54 41.03 40.69 38.93 37.33 34.96 39.60 37.34 35.18 36.79 33.54 35.02 33.71 31.25 25.86
49.47 48.11 48.61 48.94 49.39 49.43 49.65 49.96 50.21 50.24 50.27 48.05 40.99 31.84 44.30 48.13 35.79 36.18 35.00 37.00 39.62 38.46 42.09 40.15 39.84 38.31 36.52 37.41 35.59 36.31 35.90 38.21 42.81 42.42 37.17 39.26 37.38 32.05 34.21 39.99 40.37 38.45 35.82 35.07 27.08 27.00 29.21
48.91 48.01 48.64 49.03 49.15 49.91 49.87 49.95 50.14 50.15 49.61 45.61 37.27 37.88 46.81 45.03 33.86 34.30 37.69 36.69 38.24 37.80 38.57 39.31 38.60 39.68 39.69 36.51 33.83 38.07 38.42 42.77 43.22 40.83 37.18 38.39 33.14 26.95 28.44 34.53 38.07 35.51 37.19 37.47 36.20 34.97 27.47
48.19 47.95 48.64 49.17 49.26 49.99 50.37 50.32 50.13 49.81 49.87 46.31 39.14 33.62 39.84 42.92 42.00 37.26 35.31 33.49 34.95 40.44 39.26 41.35 40.24 40.45 38.30 36.88 39.20 36.49 38.00 41.73 43.01 41.64 42.81 41.46 34.42 29.97 24.77 27.55 33.79 30.98 35.03 36.68 34.51 27.09 28.69
47.69 48.06 48.58 48.98 48.75 49.26 49.97 50.22 49.55 49.64 49.70 46.41 40.95 35.59 38.20 33.53 35.58 36.92 36.63 35.34 34.55 34.25 40.83 42.17 39.44 39.22 37.86 33.88 36.49 36.06 38.98 39.83 42.04 43.70 40.16 39.11 29.85 29.27 33.29 34.91 35.38 34.10 34.57 35.21 32.18 33.36 27.93
47.28 47.99 48.69 48.93 48.90 49.12 49.84 50.20 49.40 49.42 49.88 43.42 38.10 37.67 39.56 36.97 37.34 36.62 36.31 34.36 34.91 37.04 38.84 38.43 37.83 40.13 39.76 36.28 36.99 35.11 37.92 37.85 36.62 39.76 37.50 39.50 29.33 30.43 27.34 34.84 34.59 31.69 34.95 35.77 35.67 35.76 35.24
46.80 47.84 48.63 48.89 48.79 48.84 49.86 50.13 49.64 49.64 49.04 42.18 44.24 44.06 40.33 35.82 35.75 35.47 35.37 36.15 36.79 39.72 41.04 41.69 41.05 39.62 38.02 39.40 41.51 40.82 41.03 40.72 39.32 37.65 36.60 36.07 33.05 29.85 25.34 31.34 31.11 27.07 31.57 34.37 35.15 36.63 35.59
46.35 47.68 48.45 48.73 48.73 48.72 49.37 49.89 49.90 49.70 48.80 45.02 44.70 43.67 39.01 32.90 35.21 34.26 35.92 37.57 38.00 39.48 38.67 41.37 41.31 39.73 41.34 44.77 44.42 41.74 40.99 40.82 40.17 38.74 39.69 35.23 33.54 31.37 25.46 26.88 18.16 30.44 35.44 35.58 35.13 37.67 38.07
46.10 47.50 48.20 48.81 48.83 48.82 49.19 49.54 49.92 50.00 49.73 46.33 46.30 44.02 40.23 33.75 35.42 35.91 36.29 37.26 39.17 40.95 40.01 40.10 40.83 42.23 43.63 41.86 37.39 34.46 33.87 34.45 36.27 37.67 37.56 38.28 34.88 28.04 24.55 22.52 28.42 31.12 33.87 33.24 31.94 32.12 37.21
45.70 47.09 48.15 48.71 48.75 49.64 50.26 51.00 51.13 50.19 49.37 47.54 46.31 46.20 41.97 36.32 32.23 35.55 37.01 38.92 36.15 36.86 37.98 40.15 42.55 44.19 43.45 39.84 35.85 27.70 25.55 28.80 28.45 32.18 37.29 38.08 36.84 30.73 28.19 22.84 21.35 30.09 34.73 36.84 36.07 27.37 36.93
45.61 46.87 47.91 48.59 48.88 50.08 51.73 51.99 51.24 50.47 49.59 47.61 44.14 43.81 40.09 36.27 35.40 35.75 35.26 35.99 40.09 38.16 36.07 38.19 39.41 40.36 42.75 36.62 31.20 28.21 26.42 31.83 27.29 27.39 29.28 31.11 31.33 27.15 27.87 24.65 28.79 34.73 36.03 36.98 24.52 28.60 37.46
45.53 46.74 47.91 48.45 48.87 50.65 50.81 51.22 50.26 49.14 47.72 45.86 41.89 43.73 40.65 37.12 35.71 37.39 38.32 36.00 38.38 39.62 36.06 38.56 38.13 39.25 38.40 33.63 32.21 30.39 28.71 30.86 28.99 31.03 29.95 29.30 27.12 26.79 28.10 22.99 20.52 36.20 34.96 30.23 34.31 37.47 39.02
45.38 46.62 47.63 48.12 48.53 50.39 49.91 48.69 47.76 47.05 46.72 46.66 41.33 43.06 43.08 38.61 35.86 39.32 39.38 39.17 37.63 36.82 34.71 40.00 38.16 39.25 39.20 34.80 33.59 32.55 29.75 30.56 30.24 25.29 32.73 27.64 31.69 28.71 30.20 29.64 36.01 35.95 36.02 36.84 38.24 38.44 38.37
MSLP
1021.94 1021.49 1020.97 1020.49 1020.11 1019.66 1019.20 1018.68 1018.25 1017.78 1017.31 1016.89 1016.53 1016.16 1015.72 1015.29 1014.86 1014.31 1013.79 1013.32 1012.88 1012.08 1012.35 1012.52 1013.22 1013.79 1014.15 1013.79 1012.11 1012.01 1012.70 1013.28 1013.52 1013.43 1013.37 1013.64 1013.82 1013.58 1013.51 1013.33 1013.07 1012.82 1012.69 1012.43 1011.97 1011.68 1011.33
1021.94 1021.37 1020.96 1020.55 1019.99 1019.53 1019.01 1018.55 1018.14 1017.71 1017.30 1016.93 1016.35 1015.97 1015.67 1015.27 1014.65 1014.18 1013.67 1012.97 1012.72 1012.40 1012.01 1012.26 1012.95 1013.48 1013.37 1012.94 1011.48 1011.85 1012.38 1012.96 1013.21 1013.40 1013.43 1013.65 1013.60 1013.49 1013.62 1013.53 1013.57 1013.11 1012.90 1012.31 1011.94 1011.49 1011.12
1021.49 1020.90 1020.37 1019.89 1019.42 1019.03 1018.69 1018.34 1017.93 1017.47 1016.98 1016.45 1015.99 1015.75 1015.45 1014.94 1014.55 1013.89 1013.19 1012.37 1012.13 1011.75 1011.88 1012.21 1012.71 1012.79 1012.92 1011.93 1011.40 1011.65 1012.29 1012.73 1013.03 1013.26 1013.21 1013.36 1013.69 1014.03 1013.79 1013.54 1013.17 1013.32 1013.05 1012.25 1011.43 1011.17 1010.55
1021.29 1020.78 1020.35 1019.75 1019.27 1018.78 1018.29 1017.87 1017.54 1017.17 1016.65 1016.16 1015.65 1015.31 1015.02 1014.64 1014.19 1013.49 1012.41 1010.78 1010.76 1011.22 1011.65 1012.19 1012.56 1012.35 1012.18 1011.12 1011.51 1011.82 1012.21 1012.79 1013.10 1013.30 1013.42 1013.67 1013.93 1014.07 1013.99 1013.90 1013.60 1013.53 1013.63 1012.32 1010.25 1009.87 1009.42
1021.13 1020.67 1020.02 1019.36 1018.90 1018.33 1017.82 1017.40 1017.03 1016.55 1016.12 1015.69 1015.39 1015.04 1014.68 1014.26 1013.89 1013.11 1012.17 1009.95 1010.12 1011.16 1011.85 1012.07 1012.58 1012.39 1011.66 1011.42 1011.43 1011.49 1011.90 1012.33 1012.65 1013.35 1013.65 1013.86 1013.95 1014.02 1013.87 1014.14 1013.92 1013.70 1012.94 1011.89 1010.04 1008.61 1008.77
1020.66 1020.05 1019.51 1018.91 1018.38 1017.85 1017.51 1017.16 1016.94 1016.44 1016.07 1015.48 1015.05 1014.71 1014.38 1014.15 1013.76 1013.00 1012.59 1011.64 1011.25 1011.54 1012.15 1012.46 1012.23 1012.61 1011.49 1010.90 1011.06 1011.44 1011.89 1012.38 1012.85 1013.41 1013.99 1014.12 1014.11 1013.93 1013.60 1013.99 1013.47 1012.67 1012.33 1011.26 1009.69 1008.31 1008.42
1020.13 1019.46 1018.82 1018.27 1017.75 1017.26 1017.14 1016.69 1016.50 1016.43 1015.81 1015.75 1014.98 1014.51 1014.16 1013.80 1013.61 1013.05 1012.94 1013.20 1012.21 1012.45 1011.56 1011.11 1010.87 1010.55 1010.33 1010.95 1011.37 1011.60 1012.09 1012.54 1012.82 1013.34 1013.57 1013.51 1013.71 1012.93 1012.73 1012.93 1012.55 1012.30 1011.63 1010.33 1008.87 1007.87 1008.38
1019.33 1018.39 1017.57 1017.11 1016.93 1016.96 1016.87 1016.31 1016.09 1015.93 1015.66 1015.28 1014.96 1014.37 1013.91 1013.51 1013.33 1012.94 1012.90 1013.13 1012.83 1013.14 1011.52 1010.74 1010.48 1010.48 1010.46 1010.86 1011.10 1011.53 1012.05 1012.38 1012.69 1012.80 1012.70 1013.00 1012.32 1011.85 1012.12 1012.10 1011.95 1011.58 1010.71 1009.65 1008.57 1007.73 1007.76
1018.88 1017.97 1016.35 1015.63 1015.60 1016.78 1017.07 1016.39 1015.84 1015.74 1015.57 1014.95 1014.60 1014.27 1013.80 1013.25 1012.95 1012.60 1012.55 1012.83 1012.43 1012.24 1011.60 1009.63 1010.08 1010.08 1010.40 1011.02 1010.55 1010.99 1011.85 1011.91 1012.19 1012.14 1011.91 1011.88 1010.83 1011.08 1011.53 1011.31 1011.20 1010.57 1009.86 1008.75 1008.49 1007.72 1007.08
1018.29 1017.06 1015.86 1016.13 1016.87 1017.12 1016.69 1016.28 1015.74 1015.48 1015.04 1014.64 1014.35 1014.03 1013.63 1013.20 1012.69 1012.60 1012.38 1012.71 1012.21 1012.51 1011.57 1010.51 1009.84 1009.54 1009.98 1010.66 1010.54 1010.64 1011.44 1011.56 1011.69 1011.67 1011.64 1011.40 1010.33 1010.07 1010.77 1010.61 1010.54 1009.23 1007.84 1007.58 1007.76 1007.40 1006.78
1017.77 1017.77 1017.48 1017.26 1017.12 1016.64 1016.34 1015.90 1015.51 1015.02 1014.64 1014.37 1014.16 1013.73 1013.52 1013.64 1013.54 1013.09 1012.78 1012.53 1012.52 1012.45 1011.20 1010.41 1009.99 1009.74 1009.84 1010.38 1010.36 1011.03 1011.21 1011.48 1011.44 1011.47 1011.58 1010.70 1010.22 1010.23 1010.09 1009.48 1009.37 1007.93 1007.99 1007.76 1007.29 1007.26 1007.02
1018.59 1018.43 1017.78 1017.17 1016.88 1016.50 1016.18 1015.57 1015.16 1014.68 1014.25 1013.89 1013.59 1013.34 1013.44 1013.43 1013.20 1013.26 1012.86 1012.80 1012.93 1012.42 1010.41 1009.98 1010.13 1009.96 1010.18 1010.18 1010.23 1011.04 1011.60 1012.11 1011.92 1011.86 1011.34 1010.69 1010.55 1010.71 1010.11 1009.42 1008.83 1008.26 1007.65 1007.27 1007.13 1007.15 1006.57
1018.70 1018.20 1017.91 1017.54 1016.98 1016.41 1015.73 1015.16 1014.85 1014.30 1013.79 1013.42 1013.07 1012.98 1013.23 1013.25 1013.05 1013.00 1013.25 1013.04 1012.80 1011.32 1010.17 1009.95 1009.63 1009.69 1009.58 1009.83 1010.03 1010.62 1011.24 1011.69 1011.80 1011.76 1011.11 1010.53 1010.55 1010.61 1010.36 1009.44 1008.25 1008.21 1007.69 1006.95 1006.79 1006.58 1006.38
1019.21 1018.83 1018.21 1017.48 1016.63 1016.10 1015.62 1015.22 1014.59 1013.90 1013.37 1012.91 1012.58 1012.50 1012.60 1012.50 1012.84 1013.00 1013.54 1013.49 1011.91 1010.43 1009.50 1009.00 1009.08 1009.32 1009.47 1009.22 1009.69 1009.78 1010.45 1010.95 1011.41 1011.43 1011.16 1010.35 1010.58 1010.10 1009.21 1008.64 1008.26 1007.91 1007.83 1006.88 1006.37 1005.86 1006.53
1019.40 1018.75 1017.93 1017.35 1016.73 1016.18 1015.57 1014.97 1014.27 1013.57 1013.12 1012.37 1011.82 1012.17 1012.57 1012.63 1012.67 1013.01 1013.45 1012.96 1011.70 1010.44 1009.76 1008.94 1008.90 1008.88 1008.95 1008.72 1009.06 1009.32 1010.01 1010.27 1010.31 1010.67 1010.42 1009.37 1009.55 1009.25 1008.75 1007.86 1007.69 1006.87 1006.67 1006.08 1006.08 1005.35 1006.21
1019.30 1018.72 1018.20 1017.58 1016.94 1016.31 1015.59 1014.94 1014.22 1013.40 1012.60 1011.84 1012.12 1012.73 1013.38 1013.25 1013.19 1013.51 1013.88 1012.51 1011.58 1010.58 1009.45 1008.84 1008.11 1008.11 1007.87 1008.23 1009.00 1009.42 1009.28 1008.89 1009.28 1009.07 1009.05 1008.54 1008.86 1008.63 1007.83 1007.40 1006.63 1006.55 1006.21 1005.85 1005.71 1005.64 1006.30
1019.44 1018.99 1018.34 1017.61 1016.92 1016.25 1015.69 1015.08 1014.34 1013.49 1012.70 1012.00 1012.39 1012.96 1014.61 1013.91 1013.79 1013.73 1013.34 1012.65 1011.90 1010.66 1009.64 1008.95 1007.92 1007.41 1007.25 1007.90 1008.41 1008.35 1008.44 1008.61 1008.26 1008.07 1008.01 1007.78 1008.16 1008.81 1008.06 1007.42 1006.98 1006.44 1006.03 1005.51 1005.59 1005.56 1006.46
1019.52 1019.14 1018.39 1017.65 1017.10 1016.55 1015.83 1015.26 1014.57 1013.94 1013.06 1012.31 1012.72 1013.77 1014.89 1014.55 1014.09 1013.78 1013.18 1012.99 1012.64 1011.34 1010.01 1009.19 1008.39 1007.54 1007.35 1007.43 1007.65 1007.71 1008.25 1008.45 1008.13 1007.77 1007.63 1007.71 1007.90 1007.94 1007.64 1007.36 1007.05 1006.66 1006.19 1005.77 1005.87 1006.06 1006.43
1019.71 1019.16 1018.69 1017.92 1017.28 1016.61 1016.16 1015.53 1014.90 1014.35 1013.87 1013.43 1013.78 1014.56 1014.48 1014.47 1013.71 1013.34 1012.84 1012.92 1012.56 1011.61 1010.64 1009.51 1008.49 1008.11 1007.67 1007.62 1007.70 1007.74 1008.04 1008.42 1008.15 1007.94 1008.18 1008.09 1008.10 1008.30 1008.00 1007.80 1007.09 1006.86 1006.38 1005.85 1005.71 1005.92 1006.74
1019.87 1019.27 1018.83 1018.20 1017.60 1016.94 1016.35 1015.82 1015.19 1014.72 1014.12 1013.73 1013.92 1014.50 1014.34 1014.01 1013.43 1012.90 1012.76 1013.14 1012.80 1011.91 1011.08 1009.82 1008.75 1008.11 1007.75 1007.69 1007.50 1007.85 1008.10 1008.30 1008.24 1008.18 1008.08 1008.41 1008.73 1008.89 1009.10 1009.04 1008.67 1008.02 1007.22 1006.55 1006.36 1007.13 1007.78
1020.02 1019.51 1018.78 1018.27 1017.95 1017.34 1016.74 1016.15 1015.53 1014.98 1014.34 1013.99 1013.95 1014.92 1014.81 1014.30 1013.96 1013.41 1013.25 1013.25 1012.67 1012.02 1010.87 1009.72 1008.80 1008.26 1008.10 1008.03 1007.99 1008.13 1008.21 1008.18 1008.23 1008.09 1008.11 1008.30 1009.56 1009.87 1009.80 1009.39 1008.91 1008.52 1008.15 1007.55 1007.34 1007.48 1008.23
1020.16 1019.60 1019.03 1018.31 1017.88 1017.54 1017.09 1016.54 1015.98 1015.43 1014.76 1014.53 1014.91 1015.12 1014.88 1014.76 1014.46 1013.78 1013.44 1013.27 1012.73 1011.87 1010.93 1010.03 1009.31 1008.84 1008.78 1008.79 1008.46 1008.33 1008.20 1008.39 1008.54 1008.30 1008.46 1008.58 1009.79 1010.25 1010.15 1009.87 1009.36 1009.04 1008.88 1008.58 1008.36 1008.48 1008.66
1020.10 1019.58 1019.07 1018.45 1017.81 1017.51 1017.22 1016.80 1016.27 1015.93 1015.41 1015.25 1015.54 1015.46 1015.50 1015.38 1014.87 1014.25 1013.95 1013.34 1012.48 1011.69 1011.03 1010.69 1010.07 1009.44 1009.79 1009.80 1009.13 1008.79 1008.61 1008.70 1008.89 1008.86 1008.94 1009.35 1010.00 1010.51 1010.83 1010.57 1010.09 1009.96 1009.94 1009.62 1009.47 1009.21 1009.39
1019.90 1019.72 1019.20 1018.64 1018.01 1017.40 1017.11 1016.88 1016.57 1016.31 1016.25 1015.95 1015.92 1015.85 1015.49 1015.49 1015.07 1014.71 1014.19 1013.52 1012.56 1011.97 1011.27 1011.09 1010.76 1010.21 1011.01 1010.45 1009.64 1009.13 1009.15 1009.20 1009.24 1009.27 1009.25 1009.63 1010.25 1010.91 1011.50 1010.92 1011.10 1010.95 1010.33 1010.15 1009.95 1009.96 1009.95
1019.78 1019.60 1019.09 1018.59 1018.04 1017.56 1016.93 1016.56 1016.46 1016.32 1016.26 1016.27 1016.19 1016.01 1015.83 1015.47 1015.23 1014.92 1014.30 1013.64 1012.81 1012.22 1011.90 1011.74 1011.71 1011.50 1011.20 1010.74 1010.19 1009.85 1009.81 1009.86 1009.99 1010.11 1009.90 1009.93 1010.28 1011.17 1011.59 1011.40 1011.20 1011.04 1010.67 1010.39 1010.33 1010.87 1010.67
1019.60 1019.13 1019.07 1018.57 1017.96 1017.27 1016.56 1015.84 1015.83 1015.98 1016.03 1016.31 1016.25 1016.38 1016.06 1015.97 1015.94 1015.65 1014.56 1013.82 1013.22 1012.68 1012.34 1012.27 1012.11 1011.66 1011.33 1011.06 1010.63 1010.66 1010.82 1010.86 1010.64 1010.57 1010.54 1010.49 1010.54 1011.14 1011.46 1011.59 1011.16 1010.91 1010.68 1010.54 1010.51 1011.10 1011.05
1019.55 1019.27 1018.60 1018.39 1017.84 1016.86 1015.69 1015.17 1015.25 1015.89 1016.09 1016.24 1016.68 1016.78 1016.51 1016.07 1016.30 1016.21 1015.82 1015.27 1014.39 1013.85 1013.33 1012.80 1012.52 1012.07 1011.63 1011.78 1011.59 1011.58 1011.67 1011.70 1011.44 1011.08 1011.07 1011.05 1011.19 1011.55 1011.44 1011.39 1010.82 1010.62 1010.58 1010.63 1010.99 1011.86 1011.06
1019.27 1019.09 1018.91 1018.33 1017.74 1017.03 1016.06 1015.70 1015.89 1016.28 1016.37 1016.41 1016.83 1016.67 1016.86 1016.30 1016.47 1016.52 1016.36 1016.27 1015.54 1014.97 1014.34 1013.56 1013.32 1012.82 1012.53 1012.64 1012.53 1012.33 1012.20 1012.14 1012.00 1011.62 1011.57 1011.62 1011.68 1011.74 1011.60 1011.54 1011.21 1010.59 1010.76 1011.02 1011.32 1011.30 1011.46
1019.18 1018.91 1018.84 1018.35 1017.88 1017.16 1016.81 1016.50 1016.59 1016.64 1016.59 1016.41 1016.67 1016.79 1016.66 1016.78 1016.87 1016.66 1016.58 1016.64 1016.88 1016.92 1016.45 1014.45 1013.88 1013.40 1013.32 1013.40 1013.15 1012.91 1012.74 1012.52 1012.30 1012.18 1011.97 1011.97 1011.78 1011.89 1011.48 1011.21 1010.81 1010.53 1010.86 1011.08 1011.23 1011.42 1011.76
Wind_Speed
18 16 17 18 18 20 20 18 19 20 20 22 22 23 23 23 24 26 26 23 25 12 12 12 8 10 5 7 8 17 13 8 9 7 7 8 9 8 11 9 9 12 13 16 17 18 19
20 19 19 19 18 18 18 19 19 19 19 21 21 23 23 24 24 25 27 24 27 24 11 11 11 13 5 6 6 14 10 9 9 8 8 7 7 6 6 7 7 8 15 18 17 19 19
19 20 19 19 19 19 19 19 19 19 20 20 20 21 23 24 25 27 27 34 28 15 14 13 12 10 7 10 3 7 8 7 7 7 8 6 6 6 5 8 5 6 10 17 18 19 22
21 20 21 21 19 21 19 17 18 19 19 20 21 23 22 24 25 27 30 34 16 13 12 12 12 6 6 6 11 9 8 7 5 5 6 6 3 9 10 8 11 13 9 13 10 19 22
22 22 22 22 20 21 19 20 18 18 18 20 22 23 24 23 24 27 30 23 10 16 12 10 6 5 4 6 7 7 9 10 5 4 5 7 4 7 5 4 6 6 9 14 17 19 7
24 23 22 21 21 21 20 20 21 21 20 18 20 22 22 22 22 23 26 22 13 10 6 5 3 5 6 7 9 6 4 3 4 5 2 6 5 7 5 6 8 8 6 10 13 4 10
27 25 25 24 22 20 18 19 19 21 20 19 20 21 23 21 20 21 15 6 3 1 3 7 11 2 9 8 8 7 8 8 6 8 7 13 6 10 11 15 16 15 18 19 17 12 9
31 29 27 25 19 20 22 21 20 19 18 18 21 19 21 21 20 21 5 2 2 7 4 13 10 13 9 5 6 9 9 7 7 8 11 3 11 13 15 10 11 16 19 19 16 15 11
32 34 28 32 8 20 23 23 22 19 18 18 19 19 19 21 21 7 4 6 2 5 3 5 14 12 10 5 4 16 12 6 7 11 8 10 6 3 8 10 12 13 15 17 7 8 8
34 34 33 26 23 15 18 21 19 18 17 18 19 18 16 18 11 12 4 10 6 2 1 7 9 6 8 5 5 11 11 4 6 5 8 9 15 17 7 10 8 12 8 13 15 6 5
32 32 26 25 18 16 17 20 19 19 19 18 16 15 14 10 8 4 9 6 3 3 4 7 10 6 9 7 12 7 6 4 7 5 4 2 7 6 9 13 8 8 13 6 9 7 3
27 22 19 16 15 16 19 18 19 19 18 17 16 14 8 7 4 4 8 3 1 3 2 4 6 7 11 9 7 6 3 1 3 4 6 12 1 2 4 13 12 14 12 9 7 4 3
19 19 23 19 17 19 18 20 21 21 20 18 16 13 9 4 2 5 7 2 2 2 1 6 6 9 11 8 8 8 6 4 3 3 4 2 4 6 4 6 7 6 6 2 3 3 3
18 21 19 19 20 21 23 23 23 22 21 20 19 19 6 6 5 2 3 1 1 5 5 7 8 10 3 10 4 7 2 1 4 3 3 3 2 2 1 3 4 3 4 2 5 4 1
18 19 21 21 22 23 25 24 23 23 22 22 17 2 2 2 5 2 3 2 4 3 6 7 10 6 3 5 1 4 0 3 6 8 3 2 4 4 8 5 2 3 3 4 4 5 2
18 22 21 22 23 25 24 24 25 27 26 22 2 3 4 4 5 3 2 4 4 10 4 2 2 2 6 6 3 3 5 4 2 7 9 3 2 4 4 5 6 4 7 3 2 6 4
18 21 20 21 22 23 25 26 26 28 26 15 3 5 5 3 3 2 3 5 5 11 10 8 7 4 7 6 4 4 6 5 8 4 5 5 3 4 4 4 5 3 4 4 2 3 1
19 19 19 20 23 24 25 26 26 26 25 7 3 7 4 5 0 1 3 5 4 8 7 4 4 9 8 3 4 4 5 7 7 6 3 3 1 0 4 4 2 5 5 6 3 7 4
18 17 19 20 21 21 24 25 25 24 20 5 4 2 2 1 2 3 2 5 3 7 7 6 7 6 3 4 2 4 5 3 7 4 5 6 4 1 2 1 3 4 10 7 1 3 4
17 16 19 20 20 20 22 24 23 21 20 7 3 2 1 2 2 3 4 5 3 4 5 6 2 1 1 5 4 3 3 3 4 4 6 2 5 5 3 2 3 4 9 10 4 6 8
16 17 17 19 20 22 22 22 20 21 20 5 3 2 2 3 5 7 6 3 4 7 4 6 0 6 5 2 5 3 3 4 4 2 1 4 3 4 5 3 3 4 6 10 11 7 7
15 16 17 17 19 22 21 20 18 20 21 3 2 2 3 3 5 3 3 3 4 4 6 6 6 6 12 9 6 4 5 6 5 5 3 4 1 1 3 6 5 7 9 9 9 9 9
13 15 17 17 17 20 20 20 16 16 13 3 1 1 2 3 3 4 3 1 2 3 4 5 8 5 8 7 7 5 5 5 4 6 5 4 1 4 2 4 4 4 7 7 4 8 2
12 14 17 19 18 18 18 20 18 13 7 2 2 2 3 2 2 3 3 3 6 7 5 8 9 5 5 9 9 3 6 7 8 8 6 3 3 3 3 2 4 3 3 3 5 6 7
11 14 16 18 19 19 19 18 16 11 8 2 1 2 2 2 2 2 3 3 4 4 4 5 5 5 6 5 2 3 3 3 5 6 7 7 3 2 3 1 5 4 1 1 1 3 6
10 12 16 19 20 19 20 19 12 8 2 2 2 2 3 2 3 5 4 3 2 1 2 3 1 6 5 3 2 4 4 3 3 2 1 4 3 2 3 2 2 2 3 1 3 1 3
10 12 14 18 21 22 19 11 5 3 5 2 2 2 2 2 3 4 3 4 1 3 2 2 3 6 3 3 2 2 1 1 3 4 4 2 3 2 1 2 1 3 2 2 1 4 3
8 10 14 17 19 21 14 14 13 10 5 2 1 2 2 3 2 2 3 4 4 4 1 2 0 2 2 2 2 1 2 1 2 2 1 2 0 3 0 1 4 2 2 1 4 1 5
6 8 12 14 16 16 10 11 10 6 4 3 2 1 3 1 1 2 2 2 1 3 3 4 1 2 3 1 1 1 3 1 1 2 1 2 2 1 1 3 1 1 4 2 2 3 3
Wind_Direction
336 336 337 337 340 340 339 339 343 341 340 337 340 338 342 336 336 331 331 323 325 261 198 174 184 167 172 215 244 145 142 149 167 192 204 217 233 247 242 250 263 281 265 274 277 274 281
333 331 329 334 330 329 329 329 334 333 339 332 340 337 336 338 333 330 323 315 319 305 198 168 176 167 218 231 71 142 173 167 211 201 212 231 241 291 309 289 280 293 288 286 294 285 280
325 323 326 326 325 326 326 327 330 329 328 327 331 329 330 332 334 331 322 308 300 277 182 176 168 173 231 227 135 135 160 192 193 222 230 242 251 248 288 289 282 321 312 291 268 264 260
317 321 321 324 323 326 324 330 322 323 327 323 326 327 327 329 334 331 328 312 266 186 148 171 176 156 241 200 229 173 186 198 204 248 261 282 195 257 259 269 290 284 287 276 277 245 247
318 318 319 321 320 316 319 319 321 325 322 332 332 327 323 331 334 336 342 323 170 141 156 145 164 182 246 125 192 214 198 219 194 200 239 240 233 249 235 242 270 202 270 253 275 232 227
312 311 309 311 314 312 318 319 324 321 324 331 329 325 323 324 332 335 342 341 108 104 155 163 7 180 216 205 153 153 159 205 169 173 206 241 222 242 228 220 252 270 237 257 279 259 217
305 302 301 301 308 314 326 325 323 323 328 327 325 329 319 324 328 326 339 327 316 63 249 200 172 246 140 77 120 168 155 160 169 190 202 194 206 225 227 225 243 265 273 284 288 293 231
301 294 288 288 298 328 334 332 328 330 320 324 323 329 322 321 326 321 316 255 194 294 234 222 230 214 130 181 151 161 169 184 199 217 210 178 240 243 243 270 274 276 279 281 287 281 243
319 320 304 290 348 25 329 332 328 333 327 323 324 321 318 321 325 326 288 310 201 323 277 217 205 190 171 178 228 167 179 201 209 240 216 239 253 194 241 268 268 266 265 268 256 287 219
316 312 311 52 35 1 325 319 330 330 325 327 326 315 324 333 305 357 356 352 321 262 235 142 179 209 174 209 223 147 189 222 206 247 242 266 253 256 222 256 242 281 289 247 262 235 249
339 49 27 25 13 327 327 335 332 333 332 325 322 319 328 342 307 317 324 2 333 255 169 126 123 142 165 201 132 170 176 225 255 244 268 225 329 6 275 266 279 255 331 235 274 300 313
25 30 6 4 350 340 335 331 334 332 332 330 321 317 328 310 325 3 1 4 208 239 115 121 124 180 159 209 159 135 158 111 320 299 263 266 354 262 268 319 282 303 290 267 277 266 238
21 9 9 2 346 337 339 344 345 340 337 333 323 314 307 250 246 25 22 349 216 284 241 121 151 162 173 171 175 178 173 180 246 251 208 334 285 313 255 265 227 226 309 243 236 201 36
5 10 358 341 349 359 352 347 345 342 339 337 330 321 290 245 228 280 83 280 310 64 84 115 140 162 200 153 211 195 127 199 190 209 284 275 145 291 268 280 2 52 221 302 314 35 26
3 358 355 358 358 356 352 351 349 346 343 329 327 37 46 355 164 101 51 354 353 43 66 140 152 144 170 154 144 98 108 225 194 194 264 323 44 293 232 299 276 250 246 325 290 281 137
3 1 358 1 359 354 352 353 351 349 351 354 60 60 46 34 119 87 36 321 33 26 271 47 136 265 140 157 87 197 173 67 198 201 230 319 88 352 337 320 224 260 324 322 261 339 50
2 360 0 358 354 355 353 354 355 355 357 355 52 68 26 124 133 357 338 40 14 354 13 7 358 89 111 120 174 199 72 64 4 350 233 308 149 251 245 21 360 334 345 301 242 181 178
3 358 356 358 354 355 355 356 356 359 359 0 26 78 260 319 340 50 2 13 16 319 354 343 302 16 47 64 19 61 69 31 340 316 349 60 16 121 67 142 233 275 334 313 62 329 17
358 357 353 355 356 357 356 356 355 0 7 309 55 78 228 270 26 61 41 80 16 348 341 358 44 30 342 25 52 46 73 9 360 32 16 344 8 334 145 187 327 24 353 344 279 349 336
354 354 351 353 356 356 356 354 353 358 358 336 107 78 3 235 256 9 52 31 359 261 292 292 346 147 92 50 28 125 93 54 337 12 297 264 27 48 99 116 276 5 360 5 61 59 52
352 345 352 353 356 353 355 353 357 355 352 321 13 73 336 37 23 28 69 306 42 355 262 286 211 46 13 69 93 54 95 203 149 275 258 50 82 48 90 44 74 33 25 18 48 54 89
345 342 344 353 354 351 350 353 352 352 343 60 44 3 354 31 344 28 348 16 24 17 341 17 57 47 44 44 360 63 338 18 48 9 36 349 104 58 76 42 52 63 23 38 13 55 85
341 338 338 346 353 352 345 347 348 353 344 37 61 253 296 350 339 305 39 181 292 315 80 30 349 24 62 10 17 48 72 60 48 23 14 28 98 22 40 5 354 27 10 25 59 34 6
341 335 337 339 344 347 343 341 341 345 357 355 46 303 305 68 342 39 337 314 36 5 36 39 10 41 357 328 307 81 73 71 41 18 10 354 74 63 274 351 55 205 56 355 20 61 68
337 332 333 336 338 337 334 329 324 323 329 293 6 315 326 49 2 109 216 219 255 93 44 54 31 12 336 305 273 223 193 203 81 38 4 5 332 41 73 318 139 158 129 5 4 77 15
330 332 332 337 337 332 325 319 303 296 234 237 55 313 319 341 56 320 282 1 109 74 103 70 268 306 328 279 315 357 37 316 18 134 68 316 318 77 354 67 20 120 141 315 316 83 9
324 330 336 339 341 338 336 350 60 160 119 351 82 10 290 299 71 359 345 338 30 276 45 40 356 347 359 333 7 354 82 338 327 346 6 1 331 357 333 344 351 82 73 343 99 216 69
315 331 338 345 351 348 29 59 92 109 104 1 91 11 356 329 100 10 8 343 329 300 258 136 242 238 312 328 334 18 341 111 308 144 302 278 303 207 130 283 282 150 292 26 182 53 127
300 332 339 348 359 4 64 84 92 75 329 275 94 285 310 338 357 351 31 130 21 356 318 318 295 4 3 353 271 286 247 179 7 259 281 297 155 244 352 211 243 209 102 121 46 119 109